• In Russia
  • List of Countries
  • For 7 days
  • Water Temperature
  • Satellite Maps
  • Weather Map
  • Weather Widgets
  • user-avatar
    Login

    Hourly Weather Plodovyy

    Today, 14 November, Wednesday

    Time Temperature Precipitation Wind Pressure Humidity
    00:00 -8°C° 0 mm 3 mps 761 mmHg 30%
    01:00 -8°C° 0 mm 3 mps 761 mmHg 31%
    02:00 -8°C° 0 mm 3 mps 760 mmHg 32%
    03:00 -8°C° 0 mm 3 mps 760 mmHg 33%
    04:00 -9°C° 0 mm 3 mps 759 mmHg 33%
    05:00 -9°C° 0 mm 3 mps 759 mmHg 34%
    06:00 -9°C° 0 mm 3 mps 759 mmHg 34%
    07:00 -9°C° 0 mm 4 mps 759 mmHg 33%
    08:00 -9°C° 0 mm 4 mps 758 mmHg 32%
    09:00 -9°C° 0 mm 4 mps 758 mmHg 31%
    10:00 -8°C° 0 mm 4 mps 758 mmHg 30%
    11:00 -7°C° 0 mm 4 mps 757 mmHg 28%
    12:00 -4°C° 0 mm 4 mps 757 mmHg 27%
    13:00 -4°C° 0 mm 4 mps 757 mmHg 28%
    14:00 -4°C° 0 mm 4 mps 757 mmHg 30%
    15:00 -4°C° 0 mm 4 mps 756 mmHg 32%
    16:00 -4°C° 0 mm 4 mps 756 mmHg 34%
    17:00 -5°C° 0 mm 3 mps 756 mmHg 36%
    18:00 -6°C° 0 mm 3 mps 756 mmHg 38%
    19:00 -6°C° 0 mm 3 mps 756 mmHg 37%
    20:00 -6°C° 0 mm 3 mps 756 mmHg 37%
    21:00 -6°C° 0 mm 3 mps 756 mmHg 36%
    22:00 -6°C° 0 mm 3 mps 756 mmHg 36%
    23:00 -6°C° 0 mm 3 mps 756 mmHg 35%

    Tomorrow, 15 November, Thursday

    Time Temperature Precipitation Wind Pressure Humidity
    00:00 -6°C° 0 mm 3 mps 757 mmHg 35%
    01:00 -7°C° 0 mm 3 mps 757 mmHg 35%
    02:00 -7°C° 0 mm 3 mps 757 mmHg 35%
    03:00 -6°C° 0 mm 2 mps 757 mmHg 35%
    04:00 -6°C° 0 mm 2 mps 757 mmHg 34%
    05:00 -6°C° 0 mm 2 mps 757 mmHg 34%
    06:00 -6°C° 0 mm 2 mps 757 mmHg 33%
    07:00 -6°C° 0 mm 2 mps 757 mmHg 31%
    08:00 -7°C° 0 mm 3 mps 758 mmHg 30%
    09:00 -6°C° 0 mm 3 mps 758 mmHg 28%
    10:00 -5°C° 0 mm 3 mps 758 mmHg 25%
    11:00 -4°C° 0 mm 3 mps 758 mmHg 23%
    12:00 -4°C° 0 mm 3 mps 758 mmHg 21%
    13:00 -2°C° 0 mm 3 mps 758 mmHg 21%
    14:00 -2°C° 0 mm 3 mps 758 mmHg 21%
    15:00 -2°C° 0 mm 3 mps 758 mmHg 22%
    16:00 -4°C° 0 mm 3 mps 758 mmHg 24%
    17:00 -5°C° 0 mm 3 mps 758 mmHg 25%
    18:00 -5°C° 0 mm 3 mps 758 mmHg 27%
    19:00 -5°C° 0 mm 2 mps 759 mmHg 28%
    20:00 -5°C° 0 mm 2 mps 759 mmHg 28%
    21:00 -5°C° 0 mm 2 mps 759 mmHg 29%
    22:00 -5°C° 0 mm 2 mps 759 mmHg 29%
    23:00 -5°C° 0 mm 2 mps 759 mmHg 29%

    Day after tomorrow, 16 November, Friday

    Time Temperature Precipitation Wind Pressure Humidity
    00:00 -5°C° 0 mm 2 mps 759 mmHg 30%
    01:00 -6°C° 0 mm 2 mps 760 mmHg 30%
    02:00 -6°C° 0 mm 2 mps 760 mmHg 30%
    03:00 -6°C° 0 mm 2 mps 760 mmHg 30%
    04:00 -6°C° 0 mm 2 mps 760 mmHg 30%
    05:00 -6°C° 0 mm 2 mps 760 mmHg 29%
    06:00 -6°C° 0 mm 2 mps 760 mmHg 29%
    07:00 -6°C° 0 mm 2 mps 760 mmHg 28%
    08:00 -6°C° 0 mm 3 mps 761 mmHg 27%
    09:00 -6°C° 0 mm 3 mps 761 mmHg 25%
    10:00 -5°C° 0 mm 3 mps 761 mmHg 24%
    11:00 -4°C° 0 mm 3 mps 761 mmHg 22%
    12:00 -2°C° 0 mm 3 mps 761 mmHg 20%
    13:00 -2°C° 0 mm 3 mps 761 mmHg 20%
    14:00 -2°C° 0 mm 2 mps 761 mmHg 21%
    15:00 -1°C° 0 mm 2 mps 761 mmHg 21%
    16:00 -2°C° 0 mm 2 mps 761 mmHg 22%
    17:00 -4°C° 0 mm 3 mps 761 mmHg 23%
    18:00 -5°C° 0 mm 3 mps 761 mmHg 24%
    19:00 -5°C° 0 mm 3 mps 761 mmHg 23%
    20:00 -4°C° 0 mm 2 mps 761 mmHg 23%
    21:00 -4°C° 0 mm 2 mps 761 mmHg 22%
    22:00 -4°C° 0 mm 2 mps 760 mmHg 22%
    23:00 -4°C° 0 mm 2 mps 760 mmHg 22%

    17 November, Saturday

    Time Temperature Precipitation Wind Pressure Humidity
    00:00 -5°C° 0 mm 2 mps 760 mmHg 21%
    01:00 -5°C° 0 mm 2 mps 760 mmHg 21%
    02:00 -5°C° 0 mm 2 mps 760 mmHg 21%
    03:00 -5°C° 0 mm 2 mps 760 mmHg 21%
    04:00 -5°C° 0 mm 2 mps 759 mmHg 20%
    05:00 -5°C° 0 mm 2 mps 759 mmHg 20%
    06:00 -5°C° 0 mm 2 mps 759 mmHg 20%
    07:00 -3°C° 0 mm 1 mps 759 mmHg 19%
    08:00 -3°C° 0 mm 1 mps 758 mmHg 18%
    09:00 -2°C° 0 mm 1 mps 758 mmHg 17%
    10:00 -1°C° 0 mm 1 mps 758 mmHg 16%
    11:00 0°C° 0 mm 1 mps 757 mmHg 15%
    12:00 +1°C° 0 mm 1 mps 757 mmHg 13%
    13:00 +1°C° 0 mm 1 mps 756 mmHg 15%
    14:00 +1°C° 0 mm 1 mps 756 mmHg 16%
    15:00 +1°C° 0 mm 1 mps 755 mmHg 17%
    16:00 0°C° 0 mm 1 mps 755 mmHg 17%
    17:00 -2°C° 0 mm 0 mps 754 mmHg 17%
    18:00 -2°C° 0 mm 0 mps 754 mmHg 17%
    19:00 -1°C° 0 mm 1 mps 753 mmHg 17%
    20:00 -2°C° 0 mm 1 mps 753 mmHg 17%
    21:00 -2°C° 0 mm 1 mps 752 mmHg 17%
    22:00 -2°C° 0 mm 1 mps 752 mmHg 17%
    23:00 -4°C° 0 mm 2 mps 751 mmHg 18%

    18 November, Sunday

    Time Temperature Precipitation Wind Pressure Humidity
    00:00 -4°C° 0 mm 2 mps 751 mmHg 18%
    01:00 -4°C° 0 mm 2 mps 750 mmHg 19%
    02:00 -5°C° 0 mm 2 mps 749 mmHg 19%
    03:00 -5°C° 0 mm 2 mps 749 mmHg 20%
    04:00 -5°C° 0 mm 2 mps 748 mmHg 21%
    05:00 -5°C° 0 mm 2 mps 747 mmHg 22%
    06:00 -7°C° 0 mm 3 mps 747 mmHg 23%
    07:00 -6°C° 0 mm 3 mps 746 mmHg 24%
    08:00 -6°C° 0 mm 3 mps 746 mmHg 24%
    09:00 -6°C° 0 mm 3 mps 745 mmHg 24%
    10:00 -5°C° 0 mm 3 mps 745 mmHg 23%
    11:00 -4°C° 0 mm 3 mps 744 mmHg 22%
    12:00 -2°C° 0 mm 3 mps 744 mmHg 20%
    13:00 -2°C° 0 mm 3 mps 744 mmHg 22%
    14:00 -2°C° 0 mm 2 mps 744 mmHg 23%
    15:00 -2°C° 0 mm 2 mps 743 mmHg 25%
    16:00 -2°C° 0 mm 2 mps 743 mmHg 27%
    17:00 -3°C° 0 mm 2 mps 743 mmHg 29%
    18:00 -4°C° 0 mm 2 mps 743 mmHg 31%
    19:00 -4°C° 0 mm 2 mps 743 mmHg 32%
    20:00 -4°C° 0 mm 2 mps 744 mmHg 33%
    21:00 -4°C° 0 mm 2 mps 744 mmHg 34%
    22:00 -4°C° 0 mm 2 mps 744 mmHg 34%
    23:00 -4°C° 0 mm 2 mps 744 mmHg 35%

    19 November, Monday

    Time Temperature Precipitation Wind Pressure Humidity
    00:00 -4°C° 0 mm 2 mps 745 mmHg 36%
    01:00 -4°C° 0 mm 2 mps 745 mmHg 36%
    02:00 -4°C° 0 mm 2 mps 745 mmHg 36%
    03:00 -4°C° 0 mm 2 mps 746 mmHg 37%
    04:00 -4°C° 0 mm 2 mps 746 mmHg 38%
    05:00 -4°C° 0 mm 2 mps 746 mmHg 39%
    06:00 -4°C° 0 mm 2 mps 747 mmHg 40%
    07:00 -5°C° 0 mm 3 mps 747 mmHg 41%
    08:00 -4°C° 0 mm 3 mps 747 mmHg 41%
    09:00 -4°C° 0 mm 3 mps 748 mmHg 42%
    10:00 -2°C° 0 mm 3 mps 748 mmHg 39%
    11:00 -1°C° 0 mm 3 mps 748 mmHg 36%
    12:00 -2°C° 0 mm 4 mps 748 mmHg 33%
    13:00 -1°C° 0 mm 3 mps 749 mmHg 35%
    14:00 -1°C° 0 mm 3 mps 749 mmHg 38%
    15:00 -1°C° 0 mm 3 mps 749 mmHg 40%
    16:00 -1°C° 0 mm 3 mps 749 mmHg 43%
    17:00 -2°C° 0 mm 3 mps 749 mmHg 46%
    18:00 -2°C° 0 mm 3 mps 749 mmHg 49%
    19:00 -4°C° 0 mm 3 mps 749 mmHg 50%
    20:00 -4°C° 0 mm 3 mps 749 mmHg 50%
    21:00 -4°C° 0 mm 3 mps 749 mmHg 51%
    22:00 -3°C° 0 mm 2 mps 749 mmHg 50%
    23:00 -3°C° 0 mm 2 mps 750 mmHg 50%
    Show more